KLM850 EKBI-EDHL

Flight info

Callsign KLM850
Flight time 0h 45m
Altitude 22000
Route ALS N872 DEMIR/N0383F210 DCT TUGDU M852 EKERN T905 BOGMU BOGMU1R
Aircraft B738/M-SDE2E3FGHIRWXY/LB1

Departure

Time 2026-04-22 14:00
Airport Billund Airport (EKBI)

Arrival

Time 2026-04-22 14:45
Airport Lübeck Blankensee Airport (EDHL)
Time Latitude Longitude Altitude Speed Heading
2026-04-22 13:27 55.73749 9.13629 224 ft 0 kts 175°
2026-04-22 13:49 55.73751 9.13629 224 ft 1 kts 176°
2026-04-22 13:49 55.73766 9.13626 224 ft 2 kts 175°
2026-04-22 13:49 55.73780 9.13625 224 ft 2 kts 175°
2026-04-22 13:50 55.73795 9.13622 224 ft 2 kts 175°
2026-04-22 13:50 55.73805 9.13621 224 ft 2 kts 173°
2026-04-22 13:50 55.73817 9.13609 224 ft 2 kts 121°
2026-04-22 13:50 55.73821 9.13591 224 ft 0 kts 90°
2026-04-22 13:51 55.73820 9.13578 224 ft 1 kts 85°
2026-04-22 13:51 55.73820 9.13576 224 ft 0 kts 86°
2026-04-22 13:53 55.73820 9.13577 224 ft 0 kts 86°
2026-04-22 13:53 55.73821 9.13600 224 ft 5 kts 86°
2026-04-22 13:53 55.73825 9.13707 224 ft 12 kts 87°
2026-04-22 13:54 55.73830 9.13898 226 ft 18 kts 87°
2026-04-22 13:54 55.73844 9.14149 227 ft 20 kts 75°
2026-04-22 13:54 55.73911 9.14358 229 ft 18 kts 45°
2026-04-22 13:54 55.74011 9.14504 230 ft 16 kts
2026-04-22 13:55 55.74132 9.14486 231 ft 15 kts 359°
2026-04-22 13:55 55.74180 9.14569 231 ft 13 kts 87°
2026-04-22 13:55 55.74184 9.14771 233 ft 20 kts 86°
2026-04-22 13:55 55.74194 9.15084 233 ft 28 kts 86°
2026-04-22 13:56 55.74205 9.15463 234 ft 32 kts 84°
2026-04-22 13:56 55.74218 9.15863 235 ft 30 kts 86°
2026-04-22 13:56 55.74229 9.16212 239 ft 26 kts 86°
2026-04-22 13:56 55.74239 9.16515 242 ft 22 kts 87°
2026-04-22 13:57 55.74247 9.16774 244 ft 20 kts 86°
2026-04-22 13:57 55.74256 9.17080 246 ft 30 kts 87°
2026-04-22 13:57 55.74270 9.17493 248 ft 34 kts 87°
2026-04-22 13:57 55.74283 9.17897 252 ft 25 kts 86°
2026-04-22 13:58 55.74264 9.18100 254 ft 11 kts 134°
2026-04-22 13:58 55.74209 9.18145 254 ft 11 kts 172°
2026-04-22 13:58 55.74126 9.18092 254 ft 14 kts 248°
2026-04-22 13:58 55.74117 9.17895 251 ft 16 kts 268°
2026-04-22 13:59 55.74108 9.17650 249 ft 35 kts 265°
2026-04-22 13:59 55.74079 9.16714 244 ft 114 kts 268°
2026-04-22 13:59 55.74026 9.14911 248 ft 172 kts 266°
2026-04-22 13:59 55.73940 9.12684 774 ft 192 kts 268°
2026-04-22 14:00 55.73816 9.10247 1547 ft 209 kts 266°
2026-04-22 14:00 55.73694 9.07645 2313 ft 220 kts 270°
2026-04-22 14:00 55.73652 9.04734 2563 ft 254 kts 272°
2026-04-22 14:00 55.73688 9.01489 2982 ft 276 kts 282°
2026-04-22 14:01 55.74523 8.98464 3671 ft 284 kts 316°
2026-04-22 14:01 55.76276 8.96621 4132 ft 304 kts 340°
2026-04-22 14:01 55.78381 8.95644 4487 ft 327 kts 346°
2026-04-22 14:01 55.80583 8.94771 5495 ft 325 kts 347°
2026-04-22 14:02 55.82703 8.93614 6137 ft 327 kts 336°
2026-04-22 14:02 55.84635 8.91701 6103 ft 309 kts 327°
2026-04-22 14:02 55.86277 8.89448 5787 ft 291 kts 319°
2026-04-22 14:02 55.87622 8.86851 5490 ft 274 kts 310°
2026-04-22 14:03 55.88656 8.84105 5032 ft 266 kts 294°
2026-04-22 14:03 55.89053 8.81052 5141 ft 244 kts 274°
2026-04-22 14:03 55.88798 8.78044 5437 ft 256 kts 253°
2026-04-22 14:03 55.87885 8.75293 5772 ft 264 kts 231°
2026-04-22 14:04 55.86497 8.73125 5965 ft 270 kts 218°
2026-04-22 14:04 55.84868 8.71329 5955 ft 272 kts 211°
2026-04-22 14:04 55.83170 8.69875 5955 ft 274 kts 205°
2026-04-22 14:04 55.81409 8.68628 5963 ft 272 kts 204°
2026-04-22 14:05 55.79689 8.67309 5964 ft 271 kts 207°
2026-04-22 14:05 55.77965 8.65910 5963 ft 271 kts 206°
2026-04-22 14:05 55.74406 8.63701 5967 ft 274 kts 193°
2026-04-22 14:06 55.72520 8.63371 5968 ft 275 kts 180°
2026-04-22 14:06 55.70614 8.63719 5968 ft 276 kts 169°
2026-04-22 14:06 55.68754 8.64625 5973 ft 276 kts 160°
2026-04-22 14:06 55.66994 8.65964 5968 ft 276 kts 152°
2026-04-22 14:07 55.65396 8.67758 5976 ft 275 kts 140°
2026-04-22 14:07 55.63971 8.70011 5974 ft 274 kts 133°
2026-04-22 14:07 55.62646 8.72438 5973 ft 273 kts 131°
2026-04-22 14:07 55.61342 8.74882 5978 ft 280 kts 131°
2026-04-22 14:08 55.59940 8.77471 5977 ft 306 kts 132°
2026-04-22 14:08 55.58421 8.80235 5969 ft 318 kts 133°
2026-04-22 14:08 55.56868 8.83027 5971 ft 317 kts 133°
2026-04-22 14:08 55.55321 8.85798 5973 ft 318 kts 133°
2026-04-22 14:09 55.53790 8.88542 5964 ft 318 kts 133°
2026-04-22 14:09 55.52240 8.91321 5976 ft 317 kts 133°
2026-04-22 14:09 55.50695 8.94092 5962 ft 318 kts 133°
2026-04-22 14:09 55.49142 8.96876 5957 ft 318 kts 133°
2026-04-22 14:10 55.47596 8.99644 5966 ft 319 kts 133°
2026-04-22 14:10 55.46036 9.02434 5966 ft 319 kts 133°
2026-04-22 14:10 55.44470 9.05231 5966 ft 318 kts 133°
2026-04-22 14:10 55.42918 9.07999 5969 ft 318 kts 133°
2026-04-22 14:11 55.41370 9.10757 5973 ft 318 kts 133°
2026-04-22 14:11 55.39814 9.13525 5985 ft 317 kts 133°
2026-04-22 14:11 55.38272 9.16266 6239 ft 314 kts 133°
2026-04-22 14:11 55.36726 9.19010 6788 ft 319 kts 132°
2026-04-22 14:12 55.35173 9.21767 7353 ft 323 kts 132°
2026-04-22 14:12 55.33580 9.24591 7934 ft 325 kts 132°
2026-04-22 14:12 55.32005 9.27378 8552 ft 325 kts 132°
2026-04-22 14:12 55.30413 9.30191 9178 ft 328 kts 132°
2026-04-22 14:13 55.28813 9.33016 9802 ft 331 kts 132°
2026-04-22 14:13 55.27184 9.35889 10432 ft 333 kts 132°
2026-04-22 14:13 55.25537 9.38789 11066 ft 335 kts 132°
2026-04-22 14:13 55.23888 9.41690 11694 ft 338 kts 131°
2026-04-22 14:14 55.22235 9.44595 12323 ft 341 kts 131°
2026-04-22 14:14 55.20572 9.47514 12948 ft 343 kts 131°
2026-04-22 14:14 55.18879 9.50481 13579 ft 345 kts 131°
2026-04-22 14:14 55.17178 9.53460 14217 ft 346 kts 131°
2026-04-22 14:15 55.15487 9.56416 14859 ft 347 kts 131°
2026-04-22 14:15 55.13798 9.59362 15486 ft 347 kts 131°
2026-04-22 14:15 55.12088 9.62342 16155 ft 346 kts 131°
2026-04-22 14:15 55.10397 9.65285 16776 ft 345 kts 132°
2026-04-22 14:16 55.08696 9.68240 17422 ft 343 kts 132°
2026-04-22 14:16 55.07013 9.71160 18073 ft 341 kts 131°
2026-04-22 14:16 55.05346 9.74048 18723 ft 338 kts 131°
2026-04-22 14:16 55.03688 9.76914 19385 ft 335 kts 131°
2026-04-22 14:17 55.02047 9.79754 20046 ft 331 kts 131°
2026-04-22 14:17 55.00445 9.82530 20707 ft 326 kts 131°
2026-04-22 14:17 54.98844 9.85302 21190 ft 327 kts 130°
2026-04-22 14:17 54.97185 9.88189 20978 ft 349 kts 131°
2026-04-22 14:18 54.95369 9.91109 21105 ft 362 kts 137°
2026-04-22 14:18 54.93266 9.93565 21373 ft 372 kts 148°
2026-04-22 14:18 54.90880 9.95383 21839 ft 377 kts 158°
2026-04-22 14:18 54.88339 9.96560 21975 ft 389 kts 166°
2026-04-22 14:19 54.85616 9.97113 21941 ft 399 kts 175°
2026-04-22 14:19 54.82847 9.96950 21947 ft 395 kts 184°
2026-04-22 14:19 54.80135 9.96263 21953 ft 395 kts 188°
2026-04-22 14:19 54.77432 9.95347 21940 ft 397 kts 189°
2026-04-22 14:20 54.72005 9.93408 21949 ft 398 kts 189°
2026-04-22 14:20 54.69292 9.92473 21945 ft 399 kts 189°
2026-04-22 14:20 54.66571 9.91559 21947 ft 398 kts 188°
2026-04-22 14:21 54.61143 9.89782 21945 ft 398 kts 188°
2026-04-22 14:21 54.58427 9.88906 21949 ft 398 kts 188°
2026-04-22 14:22 54.52979 9.87431 21948 ft 397 kts 181°
2026-04-22 14:22 54.50273 9.87555 21952 ft 393 kts 169°
2026-04-22 14:22 54.45159 9.90425 21952 ft 385 kts 151°
2026-04-22 14:23 54.42770 9.92418 21953 ft 384 kts 149°
2026-04-22 14:23 54.40380 9.94476 21957 ft 384 kts 149°
2026-04-22 14:23 54.37979 9.96526 21958 ft 385 kts 150°
2026-04-22 14:23 54.35589 9.98530 21960 ft 385 kts 150°
2026-04-22 14:24 54.33188 10.00511 21958 ft 386 kts 150°
2026-04-22 14:24 54.30771 10.02485 21957 ft 385 kts 150°
2026-04-22 14:24 54.28363 10.04440 21960 ft 385 kts 151°
2026-04-22 14:24 54.25915 10.06421 21954 ft 386 kts 151°
2026-04-22 14:25 54.23508 10.08364 21957 ft 385 kts 151°
2026-04-22 14:25 54.21101 10.10304 21953 ft 384 kts 151°
2026-04-22 14:25 54.18687 10.12247 21952 ft 385 kts 151°
2026-04-22 14:25 54.16268 10.14192 21955 ft 385 kts 151°
2026-04-22 14:26 54.13846 10.16137 21961 ft 385 kts 151°
2026-04-22 14:26 54.11435 10.18071 21955 ft 385 kts 151°
2026-04-22 14:26 54.09026 10.19999 21956 ft 384 kts 151°
2026-04-22 14:26 54.06620 10.21928 21941 ft 381 kts 150°
2026-04-22 14:27 54.04305 10.24006 21484 ft 376 kts 144°
2026-04-22 14:27 54.02218 10.26644 20583 ft 369 kts 132°
2026-04-22 14:27 54.00553 10.29854 19707 ft 361 kts 121°
2026-04-22 14:27 53.99295 10.33410 18976 ft 351 kts 112°
2026-04-22 14:28 53.98373 10.37138 18492 ft 335 kts 105°
2026-04-22 14:28 53.97698 10.40798 18264 ft 315 kts 100°
2026-04-22 14:28 53.97302 10.44335 18045 ft 296 kts 92°
2026-04-22 14:28 53.97154 10.47664 17863 ft 279 kts 88°
2026-04-22 14:29 53.97120 10.50907 17603 ft 268 kts 86°
2026-04-22 14:29 53.97349 10.54013 17021 ft 270 kts 66°
2026-04-22 14:29 53.98314 10.56643 16332 ft 270 kts 41°
2026-04-22 14:29 53.99929 10.58251 15625 ft 272 kts 17°
2026-04-22 14:30 54.01765 10.58923 14930 ft 276 kts
2026-04-22 14:30 54.03675 10.59327 14328 ft 276 kts
2026-04-22 14:30 54.05542 10.59693 13757 ft 274 kts
2026-04-22 14:30 54.07439 10.60074 13170 ft 272 kts
2026-04-22 14:31 54.09311 10.60369 12586 ft 272 kts 359°
2026-04-22 14:31 54.11144 10.59635 11986 ft 275 kts 334°
2026-04-22 14:31 54.12582 10.57564 11435 ft 281 kts 307°
2026-04-22 14:31 54.13345 10.54480 10861 ft 286 kts 282°
2026-04-22 14:32 54.13462 10.51140 10292 ft 287 kts 271°
2026-04-22 14:32 54.13377 10.47751 9699 ft 287 kts 268°
2026-04-22 14:32 54.12898 10.44473 9089 ft 290 kts 244°
2026-04-22 14:32 54.11642 10.41898 8811 ft 282 kts 215°
2026-04-22 14:33 54.09902 10.40673 8789 ft 265 kts 186°
2026-04-22 14:33 54.08064 10.40683 8820 ft 266 kts 166°
2026-04-22 14:33 54.06265 10.41645 8853 ft 283 kts 154°
2026-04-22 14:33 54.04461 10.43032 8821 ft 281 kts 152°
2026-04-22 14:34 54.02723 10.44428 8795 ft 280 kts 152°
2026-04-22 14:34 54.00944 10.45853 8774 ft 280 kts 152°
2026-04-22 14:34 53.99194 10.47253 8749 ft 280 kts 152°
2026-04-22 14:34 53.97435 10.48671 8717 ft 280 kts 150°
2026-04-22 14:35 53.95895 10.50606 8672 ft 275 kts 126°
2026-04-22 14:35 53.95040 10.53385 8641 ft 261 kts 97°
2026-04-22 14:35 53.95050 10.56363 8695 ft 252 kts 73°
2026-04-22 14:35 53.95584 10.59186 8722 ft 251 kts 66°
2026-04-22 14:36 53.96127 10.61994 8692 ft 251 kts 71°
2026-04-22 14:36 53.96503 10.64841 8657 ft 249 kts 77°
2026-04-22 14:36 53.96689 10.67896 8249 ft 269 kts 85°
2026-04-22 14:36 53.96647 10.71065 7843 ft 270 kts 91°
2026-04-22 14:37 53.96503 10.74204 7647 ft 263 kts 91°
2026-04-22 14:37 53.96359 10.77230 7538 ft 253 kts 91°
2026-04-22 14:37 53.96240 10.80155 7387 ft 244 kts 90°
2026-04-22 14:37 53.96139 10.83006 7119 ft 240 kts 90°
2026-04-22 14:38 53.96044 10.85828 6829 ft 240 kts 90°
2026-04-22 14:38 53.95949 10.88616 6521 ft 240 kts 90°
2026-04-22 14:38 53.95850 10.91452 6071 ft 245 kts 90°
2026-04-22 14:38 53.95748 10.94340 5587 ft 247 kts 90°
2026-04-22 14:39 53.95643 10.97249 5106 ft 248 kts 90°
2026-04-22 14:39 53.95521 11.00168 4645 ft 248 kts 94°
2026-04-22 14:39 53.95059 11.02977 4160 ft 253 kts 118°
2026-04-22 14:40 53.92192 11.06071 3285 ft 251 kts 168°
2026-04-22 14:40 53.90540 11.06716 3166 ft 239 kts 169°
2026-04-22 14:40 53.88884 11.06844 3229 ft 234 kts 195°
2026-04-22 14:40 53.87505 11.05736 3260 ft 217 kts 225°
2026-04-22 14:41 53.86594 11.03778 3234 ft 207 kts 251°
2026-04-22 14:41 53.86187 11.01533 3236 ft 192 kts 258°
2026-04-22 14:41 53.85789 10.99425 3243 ft 189 kts 255°
2026-04-22 14:41 53.85374 10.97317 3016 ft 186 kts 257°
2026-04-22 14:42 53.84988 10.95235 2783 ft 185 kts 256°
2026-04-22 14:42 53.84594 10.93193 2532 ft 177 kts 257°
2026-04-22 14:42 53.84232 10.91270 2270 ft 170 kts 257°
2026-04-22 14:42 53.83865 10.89344 2045 ft 171 kts 256°
2026-04-22 14:43 53.83501 10.87433 1812 ft 171 kts 257°
2026-04-22 14:43 53.83140 10.85539 1582 ft 169 kts 256°
2026-04-22 14:43 53.82782 10.83666 1355 ft 163 kts 256°
2026-04-22 14:43 53.82449 10.81925 1083 ft 154 kts 256°
2026-04-22 14:44 53.82117 10.80195 842 ft 147 kts 253°
2026-04-22 14:44 53.81789 10.78593 681 ft 154 kts 256°
2026-04-22 14:44 53.81473 10.76856 618 ft 155 kts 256°
2026-04-22 14:44 53.81137 10.75112 365 ft 160 kts 256°
2026-04-22 14:45 53.80803 10.73364 104 ft 152 kts 257°
2026-04-22 14:45 53.80505 10.71774 58 ft 118 kts 253°
2026-04-22 14:45 53.80322 10.70823 61 ft 56 kts 251°
2026-04-22 14:45 53.80250 10.70444 61 ft 26 kts 255°
2026-04-22 14:46 53.80225 10.70222 61 ft 7 kts 283°
2026-04-22 14:46 53.80244 10.70172 62 ft 0 kts 323°
2026-04-22 14:47 53.80259 10.70158 61 ft 6 kts 335°
2026-04-22 14:47 53.80325 10.70130 61 ft 12 kts 352°
2026-04-22 14:47 53.80369 10.70125 61 ft 3 kts
2026-04-22 14:47 53.80389 10.70158 61 ft 7 kts 63°
2026-04-22 14:48 53.80405 10.70231 61 ft 3 kts 73°
2026-04-22 14:48 53.80417 10.70269 61 ft 4 kts 41°
2026-04-22 14:48 53.80430 10.70279 61 ft 1 kts 13°
2026-04-22 14:48 53.80447 10.70268 61 ft 3 kts 323°
2026-04-22 14:49 53.80455 10.70258 61 ft 0 kts 323°
2026-04-22 14:49 53.80460 10.70251 61 ft 0 kts 322°